AirNav   Air Wisconsin pilot careers
 
 1168 users online  

6F1 Talihina Municipal Airport
Talihina, Oklahoma, USA

GOING TO TALIHINA?


FAA INFORMATION EFFECTIVE 06 DECEMBER 2018

Location

FAA Identifier: 6F1
Lat/Long: 34-42-27.9770N / 095-04-25.6290W
34-42.466283N / 095-04.427150W
34.7077714 / -95.0737858
(estimated)
Elevation: 687 ft. / 209.4 m (surveyed)
Variation: 05E (1985)
From city: 3 miles SW of TALIHINA, OK
Time zone: UTC -6 (UTC -5 during Daylight Saving Time)
Zip code: 74571

Airport Operations

Airport use: Open to the public
Activation date: 10/1979
Control tower: no
ARTCC: FORT WORTH CENTER
FSS: MC ALESTER FLIGHT SERVICE STATION
NOTAMs facility: MLC (NOTAM-D service available)
Attendance: UNATNDD
Wind indicator: yes
Segmented circle: yes
Lights: ACTVT MIRL RY 01/19 - CTAF.

Airport Communications

CTAF: 122.9

Nearby radio navigation aids

VOR radial/distance  VOR name  Freq  Var
PGOr270/23.0RICH MOUNTAIN VORTAC113.5004E
MLCr096/35.9MC ALESTER VORTAC112.0008E

Airport Services

Parking: tiedowns
Airframe service: NONE
Bottled oxygen: NONE
Bulk oxygen: NONE

Runway Information

Runway 1/19

Dimensions: 3300 x 60 ft. / 1006 x 18 m
Surface: asphalt, in fair condition
Weight bearing capacity: 
Single wheel: 12.0
Runway edge lights: medium intensity
Runway edge markings: MARKINGS SEVERELY FADED.
RUNWAY 1  RUNWAY 19
Latitude: 34-42.208333N34-42.724217N
Longitude: 095-04.531667W095-04.322617W
Elevation: 683.4 ft.684.3 ft.
Gradient: 0.3%0.3%
Traffic pattern: leftleft
Runway heading: 014 magnetic, 019 true194 magnetic, 199 true
Markings: basic, in poor conditionbasic, in poor condition
Touchdown point: yes, no lightsyes, no lights
Obstructions: 20 ft. trees, 240 ft. from runway, 2:1 slope to clear
+20 FT TREES 115 FT FM THLD 90 FT L.
40 ft. trees, 415 ft. from runway, 125 ft. right of centerline, 5:1 slope to clear

Airport Ownership and Management from official FAA records

Ownership: Publicly-owned
Owner: CITY OF TALIHINA
CITY HALL PO BOX 457
TALIHINA, OK 74571
Phone 918-567-2194
Manager: BRANN LINGENFELTER
CITY HALL PO BOX 457
TALIHINA, OK 74571
Phone (918) 413-2088
AIRPORT BOARD MEMBER.

Airport Operational Statistics

Aircraft operations: avg 29/month *
100% transient general aviation
* for 12-month period ending 07 November 2016

Instrument Procedures

There are no published instrument procedures at 6F1.

Some nearby airports with instrument procedures:

KRKR - Robert S Kerr Airport (29 nm NE)
KGZL - Stigler Regional Airport (35 nm N)
KMLC - Mc Alester Regional Airport (37 nm W)
80F - Antlers Municipal Airport (42 nm SW)
KMEZ - Mena Intermountain Municipal Airport (44 nm E)
 
Loc | Ops | Rwys | IFR | FBO | Links
Com | Nav | Svcs | Stats | Notes


 
Area around 6F1 (Talihina Municipal Airport)
 
Road maps at: MapQuest Bing Google
 
Aerial photo
WARNING: Photo may not be current or correct
Aerial photo of 6F1 (Talihina Municipal Airport)
Photo by Matthew Nichols
Photo taken 05-May-2008

Do you have a better or more recent aerial photo of Talihina Municipal Airport that you would like to share? If so, please send us your photo.

 
Sectional chart

 
Airport distance calculator
Flying to Talihina Municipal Airport? Find the distance to fly.

From to 6F1

Sunrise and sunset
Times for 18-Dec-2018
 Local
(UTC-6)
 Zulu
(UTC)
Morning civil twilight06:5512:55
Sunrise07:2313:23
Sunset17:1123:11
Evening civil twilight17:3923:39

Current date and time
Zulu (UTC)  18-Dec-2018 22:42:29
Local (UTC-6)  18-Dec-2018 16:42:29
 
METAR
KRKR 
29nm NE 
182215Z AUTO 00000KT 10SM CLR 15/06 A3001 RMK AO2
KGZL 
35nm N 
182215Z AUTO 17005KT 10SM CLR 14/04 A3002 RMK AO2
KMLC 
37nm W 
182153Z AUTO RMK AO2 SLPNO PWINO FZRANO $
KMEZ 
44nm E 
182215Z AUTO 00000KT 10SM SCT019 13/08 A3004 RMK AO2
KJSV 
46nm N 
182215Z AUTO 10005KT 10SM CLR 14/07 A3002 RMK AO2
KHHW 
47nm SW 
182215Z AUTO 13004KT 10SM CLR 11/07 A3002 RMK AO2 T01100065
K4O4 
49nm S 
182215Z AUTO 12006KT 10SM SCT012 10/06 A3004 RMK AO2
TAF
NOTAMs
Click for the latest NOTAMs
NOTAMs are issued by the DoD/FAA and will open in a separate window not controlled by AirNav.

 

 
 

Would you like to see your business listed on this page?

 If your business provides an interesting product or service to pilots, flight crews, aircraft, or users of the Talihina Municipal Airport, you should consider listing it here.  To start the listing process, click on the button below
 
Add a business
 

Other Pages about Talihina Municipal Airport

Update a link
 
Copyright © AirNav, LLC. All rights reserved. Privacy Policy  Contact